Погода в Малобрагине

Россия / Томская область     56°51′08″N   84°23′01″E
темп.,
°C
ветер,
м/с
пор.,
м/с
влажн.,
%
обл.,
%
осадки,
мм/ч
давл.,
гПа
погр.,
м
8 марта, пн
пн801:00−13ююз259412 0.0 102090
04:00−12ююв369199 0.0 1018183
07:00−10ююв51184100 0.0 1015319
10:00−6ю61389100 0.0 1010648
13:00−2ю71388100 0.0 1006749
16:00+1ю61381100 0.0 10021096
19:00−1ююз61485100 0.0 10011114
22:00−3юз61490100 0.3 10041084
9 марта, вт
вт901:00−9з41190100 0.7 1010683
04:00−11зюз4119198 0.0 1014427
07:00−11юз4119399 0.0 1017449
10:00−12юз51190100 0.1 1019576
13:00−9юз5108399 0.1 1020739
16:00−7ююз6118393 0.0 1021905
19:00−8ююз5128697 0.1 1020829
22:00−10ююз41289100 0.0 1019604
10 марта, ср
ср1001:00−10ююз51488100 0.0 1017581
04:00−12ююз5138699 0.0 1016519
07:00−11ююз5148595 0.0 1015546
10:00−10юз5118891 0.0 1016568
13:00−8юз368995 0.1 1016502
16:00−6ююз2490100 0.0 1015461
19:00−7юв2395100 0.1 101477
22:00−8юв3892100 0.0 1010215
11 марта, чт
чт1101:00−5вюв4995100 0.1 1004333
04:00−1ю51297100 3.2 998855
07:00+1ююз51498100 4.3 996846
10:00−3юз8148698 0.3 9991112
13:00−5юз7138499 0.4 10051111
16:00−4юз61284100 0.1 10081104
19:00−5юз51191100 0.3 1010994
22:00−7юз51287100 0.2 1013944
12 марта, пт
пт1201:00−10ююз41191100 0.2 1015591
04:00−11ююв3894100 0.0 1013277
07:00−8ююв41193100 1.5 1008753
10:00−6юз81491100 0.4 10081119
13:00−7зюз61081100 0.8 10111439
16:00−9юз6982100 0.4 10131290
19:00−12юз51086100 0.5 1015804
22:00−17юз399499 0.0 1017282